Regional Weather Roundup
Issued by NWS

Home | Current Version | Previous Version | Graphics & Text | Print | Product List | Glossary On
Versions: 1 2 3 4 5 6 7 8 9 10 11 12 13 14 15 16 17 18 19 20 21 22 23 24 25 26 27 28 29 30 31 32 33 34 35 36 37 38 39 40 41 42 43 44 45 46 47 48 49 50
000
ASUS43 KLOT 180904
RWRIL

ILLINOIS REGIONAL WEATHER ROUNDUP
NATIONAL WEATHER SERVICE CHICAGO/ROMEOVILLE IL
400 AM CDT MON JUN 18 2018

NOTE: "FAIR" INDICATES FEW OR NO CLOUDS BELOW 12,000 FEET WITH NO
SIGNIFICANT WEATHER AND/OR OBSTRUCTIONS TO VISIBILITY.

* THESE STATIONS ARE NOT UNDER NWS QUALITY CONTROL. THEY ALSO MAY NOT
  REPORT WEATHER SUCH AS PRECIPITATION OR FOG.

ILZ001-002-007-009-015-016-024-181000-
NORTHWEST ILLINOIS

CITY           SKY/WX    TMP DP  RH WIND       PRES   REMARKS
MOLINE         FAIR      80  72  76 SW8       29.93R HX  84
STERLING*      FAIR      77  73  87 VRB5      29.95R
$$

ILZ003-004-008-010-011-017-018-181000-
NORTH CENTRAL ILLINOIS

CITY           SKY/WX    TMP DP  RH WIND       PRES   REMARKS
ROCKFORD       FAIR      78  71  79 SW9       29.94S HX  80
FREEPORT*      FAIR      76  72  85 SW13      29.95R
ROCHELLE*      FAIR      74  73  96 SW6       29.95S
DE KALB*       FAIR      72  72  99 S7        29.96F
PERU*          FAIR      77  73  87 SW9       29.96F
$$

ILZ005-006-012>014-019>023-181000-
NORTHEAST ILLINOIS

CITY           SKY/WX    TMP DP  RH WIND       PRES   REMARKS
CHICAGO-OHARE  FAIR      81  70  69 SW9       29.94S HX  84
CHICAGO-MIDWAY FAIR      80  74  81 SW9       29.95S HX  85
AURORA         FAIR      76  72  87 SW7       29.95S
LANSING*       FAIR      77  74  93 SW8       29.97F
JOLIET*        FAIR      78  75  89 SW6       29.97S HX  81
WAUKEGAN       FAIR      78  72  81 SW12      29.92S HX  80
DUPAGE AIRPORT FAIR      77  72  84 S7        29.94F
KANKAKEE*      FAIR      78  72  83 SW9       29.99F HX  80
WHEELING       FAIR      81  72  74 SW9       29.95S HX  85
MORRIS*        FAIR      76  73  88 SW9       29.96S
NORTHERLY ISL    N/A     81  70  69 S10         N/A  HX  84
$$

LMZ740>746-181000-
SOUTHERN LAKE MICHIGAN

STATION/POSITION SKY/WX   TEMP    WIND        PRES    VSBY  WAVE
                          AIR SEA DIR/SP/G                  HT/PER
                          (F)     (DEG/KT/KT) (MB)    (MI)  (FT/S)
SOUTHERN BUOY              64 58  200/ 12/ 12 1012.9F         1/ 3
WILMETTE HARBOR            74 64  210/  8/ 12   N/A           1/ 2
HARRISON CRIB              83     210/ 19/ 22   N/A
NORTHERLY ISL              81     180/  8/ 10   N/A
CALUMET HARBOR             81     210/  7/ 12 1014.1S
BURNS HARBOR               78     200/ 13/ 17 1014.9F
MICHIGAN CITY              79     180/ 15/ 18   N/A
MICHIGAN CITY 6N           75 69  230/ 10/ 12   N/A           1/ 2
ST. JOSEPH                 75 71  250/ 10/ 14 1014.0F         1/ 2
$$

ILZ025>027-034>036-040-047-049-050-058-095>099-181000-
WEST-CENTRAL ILLINOIS

CITY           SKY/WX    TMP DP  RH WIND       PRES   REMARKS
QUINCY         CLEAR     78  71  79 S8        29.99S HX  80
GALESBURG*     FAIR      76  70  82 W7        29.98S
MACOMB*        CLEAR     77  72  84 SW9       29.99F
JACKSONVILLE*  CLEAR     76  70  82 S5        30.00S
PITTSFIELD*    CLEAR     77  73  87 S5        30.01F
$$

ILZ028>032-037-038-041>044-048-051>054-059>061-181000-
CENTRAL ILLINOIS

CITY           SKY/WX    TMP DP  RH WIND       PRES   REMARKS
PONTIAC        FAIR      78  76  93 SW9       29.99S HX  82
BLOOMINGTON    FAIR      77  72  84 SW13      30.02R
DECATUR        FAIR      77  72  84 SW9       30.02S
PEORIA         FAIR      76  72  87 S7        29.98F
LACON*         FAIR      78  73  82 S8        29.96S HX  81
LINCOLN*       FAIR      76  74  94 CALM      30.00S
SPRINGFIELD    FAIR      79  74  84 S9        30.00F HX  82
TAYLORVILLE    FAIR      74  73  95 S6        30.02S
$$

ILZ033-039-045-046-055>057-062-063-181000-
EAST-CENTRAL ILLINOIS

CITY           SKY/WX    TMP DP  RH WIND       PRES   REMARKS
CHAMPAIGN      FAIR      74  73  97 S6        30.03S
DANVILLE*      FAIR      76  74  92 SW8       30.00S
RANTOUL*       FAIR      78  74  87 SW12      30.01F HX  81
MATTOON        FAIR      77  73  87 S6        30.03S
$$

ILZ079-100>102-181000-
SOUTHWEST ILLINOIS

CITY           SKY/WX    TMP DP  RH WIND       PRES   REMARKS
CAHOKIA*       CLEAR     76  70  82 CALM      30.02R
SPARTA*        CLOUDY    78  74  90 S6        30.05S HX  80
$$

ILZ064>066-069>071-074>076-080>082-084>086-088>090-092>094-181000-
SOUTH-CENTRAL ILLINOIS

CITY           SKY/WX    TMP DP  RH WIND       PRES   REMARKS
CARBONDALE     FAIR      76  71  85 S6        30.04S
CAIRO*         FAIR      75  72  88 S6        30.06S
EFFINGHAM*     FAIR      76  71  83 CALM      30.05S
MARION         FAIR      75  70  84 SW5       30.06S
MT. VERNON     FAIR      75  73  93 S5        30.05S
CENTRALIA*     CLOUDY    78  74  88 S5        30.03S HX  81
SALEM*         FAIR      78  73  83 S6        30.04R HX  81
METROPOLIS*    FAIR      75  70  84 S5        30.07S
$$

ILZ067-068-072-073-078-083-087-091-181000-
SOUTHEAST ILLINOIS

CITY           SKY/WX    TMP DP  RH WIND       PRES   REMARKS
LAWRENCEVILLE  FAIR      78  73  84 S3        30.04S HX  81
FLORA*         FAIR      77  74  91 SW3       30.04S
FAIRFIELD*     FAIR      76  74  93 S3        30.04S
HARRISBURG*    FAIR      76  72  87 CALM      30.06S
ROBINSON*      FAIR      74  73  96 S6        30.05S
$$

ABBREVIATIONS USED IN REMARKS
   TC - TEMPERATURE IN CELSIUS
  WCI - WIND CHILL INDEX
   HX - HEAT INDEX
  VSB - VISIBILITY
$$





USA.gov is the U.S. government's official web portal to all federal, state and local government web resources and services.